Location: Luxembourg
(49.6117°N, 6.1300°E)
Time: 07:57:06
(UTC+02:00)

X-37B - Visible Passes

Search period start: 09 May 2021 00:00
Search period end: 19 May 2021 00:00
Orbit: 386 x 389 km, 45.0° (Epoch: 06 May)

Date Brightness Start Highest point End Pass type
(mag) Time Alt. Az. Time Alt. Az. Time Alt. Az.
09 May 1.7 22:19:44 10° WSW 22:22:35 30° S 22:24:16 18° SE visible
10 May 2.4 22:58:12 10° WSW 23:00:28 18° SSW 23:00:38 18° SSW visible
11 May 2.1 21:59:38 10° WSW 22:02:18 24° SSW 22:04:43 11° SE visible
12 May 2.9 22:38:37 10° WSW 22:40:05 13° SSW 22:41:05 11° S visible
